www.pogodaiklimat.ru

Погода и климат >> Архив погоды >> Норвегия >> Дивидален


ПОГОДА в Дивидалене

  • Прогноз погоды в Дивидалене
  • Монитор погоды в Дивидалене

АРХИВ ПОГОДЫ в Дивидалене

Время (UTC), дата Ветер
(напр.,м/с)
 
Видим.   Явления Облачность Т
(С)
Тd
(С)
f
(%)
Тe
(С)
Тes
(С)
Комфортность P
(гПа)
Po
(гПа)
Тmin
(С)
Tmax
(С)
R
(мм)
R24
(мм)
S
(см)
13 12.08 н/о н/о +19.1 +10.7 58 1002.7 979.2
14 12.08 н/о н/о +19.4 +10.9 58 1002.5 979.0
15 12.08 н/о н/о +18.9 +10.7 59 1002.5 979.0
16 12.08 н/о н/о +19.8 +10.5 55 1002.5 979.1
17 12.08 н/о н/о +19.6 +10.3 55 1002.7 979.2
18 12.08 н/о н/о +16.7 +10.6 67 1003.0 979.3 +15.6 +21.3
19 12.08 н/о н/о +15.1 +10.5 74 1003.3 979.5
20 12.08 н/о н/о +14.8 +10.8 77 1003.6 979.7
21 12.08 н/о н/о +14.3 +10.9 80 1003.9 980.0
22 12.08 н/о н/о +13.6 +10.6 82 1004.3 980.3
23 12.08 н/о н/о +13.0 +9.8 81 1004.4 980.4
00 13.08 н/о н/о +12.3 +10.0 86 1004.4 980.3
01 13.08 н/о н/о +11.7 +9.6 87 1004.7 980.6
02 13.08 н/о н/о +11.3 +9.2 87 1004.6 980.4
03 13.08 н/о н/о +10.2 +9.0 92 1004.7 980.4
04 13.08 н/о н/о +12.5 +9.9 84 1004.4 980.3
05 13.08 н/о н/о +13.6 +10.2 80 1004.2 980.2
06 13.08 н/о н/о +15.3 +10.5 73 1004.0 980.2 +9.8 +16.6
07 13.08 н/о н/о +16.0 +10.1 68 1003.9 980.1
08 13.08 н/о н/о +16.3 +10.6 69 1003.8 980.1
09 13.08 н/о н/о +16.6 +11.1 70 1003.7 980.0
10 13.08 н/о н/о +17.4 +10.8 65 1003.4 979.8
11 13.08 н/о н/о +16.6 +11.5 72 1003.4 979.7
12 13.08 н/о н/о +17.4 +11.2 67 1003.2 979.6
13 13.08 н/о н/о +19.1 +10.9 59 1002.7 979.2
14 13.08 н/о н/о +18.6 +10.9 61 1002.5 979.0
15 13.08 н/о н/о +17.4 +11.7 69 1002.6 979.0
16 13.08 н/о н/о +16.3 +13.4 83 1002.7 979.0 0.2
17 13.08 н/о н/о +15.9 +11.7 76 1002.9 979.1
18 13.08 н/о н/о +15.5 +12.6 83 1002.8 979.0 +15.1 +19.8
19 13.08 н/о н/о +15.5 +11.3 76 1002.7 978.9
20 13.08 н/о н/о +13.8 +12.2 90 1003.1 979.2 0.2
21 13.08 н/о н/о +12.5 +11.2 92 1003.1 979.1
22 13.08 н/о н/о +11.5 +10.4 93 1003.0 978.9
23 13.08 н/о н/о +10.4 +9.3 93 1003.0 978.8
00 14.08 н/о н/о +9.9 +9.0 94 1003.1 978.8
01 14.08 н/о н/о +11.2 +10.4 95 1002.9 978.8
02 14.08 н/о н/о +11.7 +10.9 95 1002.7 978.6 0.4
03 14.08 н/о н/о +11.8 +10.9 94 1002.6 978.5
04 14.08 н/о н/о +12.6 +11.7 94 1002.4 978.4
05 14.08 н/о н/о +13.2 +12.3 94 1002.3 978.3
06 14.08 н/о н/о +13.5 +12.2 92 1002.2 978.3 +9.6 +15.7 0.6
07 14.08 н/о н/о +14.8 +11.8 82 1001.9 978.1
08 14.08 н/о н/о +16.9 +11.8 72 1001.5 977.9
09 14.08 н/о н/о +17.6 +11.0 65 1001.4 977.8
10 14.08 н/о н/о +18.4 +10.8 61 1001.1 977.6
11 14.08 н/о н/о +20.7 +10.5 52 1000.8 977.5
12 14.08 н/о н/о +20.0 +10.4 54 1000.6 977.2
13 14.08 н/о н/о +19.9 +10.3 54 1000.6 977.2
14 14.08 н/о н/о +16.4 +12.2 76 1001.1 977.4 0.1
15 14.08 н/о н/о +15.7 +13.4 86 1001.4 977.7 1
16 14.08 н/о н/о +15.0 +13.0 88 1001.8 978.0 5
17 14.08 н/о н/о +14.5 +13.1 91 1002.2 978.3 3
18 14.08 н/о н/о +13.5 +12.2 92 1002.4 978.5 +13.5 +21.9 2
19 14.08 н/о н/о +13.3 +12.2 93 1002.5 978.5 0.1
20 14.08 н/о н/о +12.5 +11.4 93 1002.7 978.7 5
21 14.08 н/о н/о +11.5 +10.4 93 1002.9 978.8 0.2
22 14.08 н/о н/о +11.2 +10.3 94 1003.0 978.9
23 14.08 н/о н/о +10.9 +10.0 94 1003.2 979.0 0.4
00 15.08 н/о н/о +10.9 +10.0 94 1003.3 979.1
01 15.08 н/о н/о +10.6 +9.7 94 1003.3 979.1 0.2
02 15.08 н/о н/о +10.5 +9.6 94 1003.3 979.1
03 15.08 н/о н/о +10.5 +9.6 94 1003.4 979.2
04 15.08 н/о н/о +10.4 +9.5 94 1003.4 979.2 0.7
05 15.08 н/о н/о +10.6 +9.7 94 1003.5 979.3 1
06 15.08 н/о н/о +10.8 +9.9 94 1003.6 979.4 +10.4 +13.5 9
07 15.08 н/о н/о +11.8 +10.7 93 1003.5 979.4 0.2
08 15.08 н/о н/о +12.4 +10.6 89 1003.5 979.4
10 15.08 н/о н/о +13.3 +11.0 86 1003.6 979.6
11 15.08 н/о н/о +13.9 +11.3 84 1003.5 979.6
12 15.08 н/о н/о +14.0 +11.0 82 1003.6 979.7
13 15.08 н/о н/о +14.0 +10.6 80 1003.9 980.0
14 15.08 н/о н/о +13.6 +10.0 79 1004.3 980.3
15 15.08 н/о н/о +12.3 +10.4 88 1004.9 980.8 0.1
16 15.08 н/о н/о +11.9 +10.3 90 1005.4 981.3 0.2
17 15.08 н/о н/о +11.6 +10.2 91 1005.7 981.5 0.2
19 15.08 н/о н/о +10.8 +9.4 91 1006.3 982.0
20 15.08 н/о н/о +10.5 +9.3 92 1006.6 982.3
21 15.08 н/о н/о +10.4 +9.2 92 1006.8 982.5
22 15.08 н/о н/о +10.1 +8.9 92 1007.1 982.8
23 15.08 н/о н/о +10.1 +8.9 92 1007.3 983.0
00 16.08 н/о н/о +9.8 +8.7 93 1007.3 982.9
01 16.08 н/о н/о +9.8 +8.7 93 1007.3 982.9
02 16.08 н/о н/о +9.7 +8.6 93 1007.3 982.9
03 16.08 н/о н/о +9.8 +8.7 93 1007.3 982.9
04 16.08 н/о н/о +10.1 +9.0 93 1007.1 982.8
05 16.08 н/о н/о +10.9 +9.3 90 1007.2 982.9
06 16.08 н/о н/о +12.0 +9.0 82 1006.9 982.7 +9.5 +12.0
07 16.08 н/о н/о +12.2 +9.2 82 1006.3 982.2
08 16.08 н/о н/о +14.5 +8.7 68 1005.8 981.9
09 16.08 н/о н/о +15.8 +9.0 64 1005.1 981.3
10 16.08 н/о н/о +16.4 +8.4 59 1004.7 980.9
11 16.08 н/о н/о +17.3 +9.0 58 1004.4 980.7
12 16.08 н/о н/о +16.2 +9.2 63 1004.4 980.6
13 16.08 н/о н/о +17.0 +9.9 63 1004.2 980.5
14 16.08 н/о н/о +17.5 +10.2 62 1003.7 980.1
15 16.08 н/о н/о +18.1 +8.9 55 1003.3 979.7
16 16.08 н/о н/о +17.4 +9.3 59 1003.0 979.4
17 16.08 н/о н/о +16.1 +10.0 67 1002.8 979.1
18 16.08 н/о н/о +13.6 +10.6 82 1003.3 979.3 +11.9 +18.9
19 16.08 н/о н/о +12.6 +10.0 84 1003.6 979.6
20 16.08 н/о н/о +11.8 +10.1 89 1004.2 980.1
21 16.08 н/о н/о +11.0 +8.2 83 1005.0 980.8 0.1
22 16.08 н/о н/о +9.9 +8.2 89 1005.1 980.8 0.1
23 16.08 н/о н/о +9.5 +8.3 92 1005.2 980.9 0.4
00 17.08 н/о н/о +9.3 +8.2 93 1005.4 981.0 3
01 17.08 н/о н/о +9.1 +8.2 94 1005.5 981.1 1
02 17.08 н/о н/о +8.5 +7.4 93 1005.9 981.5
03 17.08 н/о н/о +7.8 +6.7 93 1006.2 981.7
04 17.08 н/о н/о +6.9 +5.9 93 1006.4 981.8
05 17.08 н/о н/о +6.1 +5.1 93 1006.7 982.0
06 17.08 н/о н/о +8.5 +7.7 95 1006.2 981.8 +5.9 +13.6 4
07 17.08 н/о н/о +11.8 +9.5 86 1005.7 981.5
08 17.08 н/о н/о +15.6 +8.4 62 1005.0 981.2
09 17.08 н/о н/о +16.3 +6.2 51 1004.9 981.1
10 17.08 н/о н/о +17.5 +4.5 42 1004.4 980.7
11 17.08 н/о н/о +18.6 +6.1 44 1004.0 980.4
12 17.08 н/о н/о +19.5 +7.0 44 1003.8 980.3
13 17.08 н/о н/о +18.6 +8.3 51 1003.2 979.7
14 17.08 н/о н/о +17.9 +9.0 56 1003.2 979.6
15 17.08 н/о н/о +17.9 +9.8 59 1002.9 979.3
16 17.08 н/о н/о +16.5 +9.9 65 1002.9 979.2
17 17.08 н/о н/о +15.7 +10.7 72 1003.2 979.4
18 17.08 н/о н/о +15.1 +11.1 77 1002.8 979.0 +8.7 +19.7
19 17.08 н/о н/о +15.3 +11.1 76 1002.4 978.6
20 17.08 н/о н/о +14.7 +11.9 83 1002.1 978.3 0.1
21 17.08 н/о н/о +13.8 +12.5 92 1001.2 977.3 4
22 17.08 н/о н/о +14.0 +12.7 92 1000.8 976.9 0.2
23 17.08 н/о н/о +14.3 +12.7 90 1000.7 976.9 0.1
00 18.08 н/о н/о +14.6 +12.1 85 1000.4 976.6 0.1
01 18.08 н/о н/о +14.2 +11.9 86 1000.2 976.4
02 18.08 н/о н/о +15.0 +11.2 78 1000.0 976.2
03 18.08 н/о н/о +14.6 +11.0 79 1000.0 976.2
04 18.08 н/о н/о +14.6 +10.4 76 999.5 975.7
05 18.08 н/о н/о +15.3 +9.9 70 999.8 976.1
06 18.08 н/о н/о +14.9 +9.7 71 1000.1 976.3 +13.8 +15.6 5
07 18.08 н/о н/о +15.2 +10.0 71 1000.0 976.3
08 18.08 н/о н/о +15.2 +10.2 72 1000.9 977.1
09 18.08 н/о н/о +16.2 +10.3 68 1001.0 977.3
10 18.08 н/о н/о +17.9 +10.8 63 1000.8 977.3
11 18.08 н/о н/о +16.3 +10.8 70 1001.8 978.1
12 18.08 н/о н/о +16.0 +11.4 74 1001.8 978.1
13 18.08 н/о н/о +15.9 +11.9 77 1002.1 978.4
14 18.08 н/о н/о +15.9 +11.7 76 1001.8 978.1 0.1
15 18.08 н/о н/о +17.2 +12.1 72 1001.8 978.2
16 18.08 н/о н/о +17.6 +11.9 69 1001.9 978.3
17 18.08 н/о н/о +17.1 +11.6 70 1001.8 978.2
18 18.08 н/о н/о +16.3 +11.7 74 1002.1 978.4 +14.8 +18.4
19 18.08 н/о н/о +15.2 +11.6 79 1002.3 978.5
20 18.08 н/о н/о +15.1 +11.3 78 1002.3 978.5
21 18.08 н/о н/о +13.9 +12.0 88 1002.3 978.4 0.5
22 18.08 н/о н/о +13.5 +11.9 90 1001.9 978.0
23 18.08 н/о н/о +13.2 +10.4 83 1002.5 978.5
00 19.08 н/о н/о +14.2 +10.0 76 1002.5 978.6
01 19.08 н/о н/о +13.9 +10.3 79 1002.3 978.4
02 19.08 н/о н/о +13.8 +10.0 78 1002.1 978.2
03 19.08 н/о н/о +12.8 +10.2 84 1002.3 978.3
05 19.08 н/о н/о +14.6 +11.0 79 1001.2 977.4
06 19.08 н/о н/о +15.5 +11.3 76 1000.8 977.1 +12.8 +16.3 0.5
07 19.08 н/о н/о +13.9 +11.8 87 1000.6 976.7 0.5
08 19.08 н/о н/о +14.0 +12.6 91 999.8 976.0 2
09 19.08 н/о н/о +13.7 +12.4 92 998.7 974.9 2
10 19.08 н/о н/о +13.8 +12.5 92 998.0 974.2 1
11 19.08 н/о н/о +14.2 +12.2 88 997.7 973.9 0.3

 

Местоположение метеостанции Дивидален (Норвегия): широта 68.78 долгота 19.70 высота над уровнем моря 204 м.

В архиве по умолчанию представлена погода в Дивидалене за последнюю неделю. Архивные данные за месяц целиком и за предыдущие месяцы, начиная с января 2011 года, Вы можете получить, выбрав интересующий диапазон дат из раскрывающегося списка и нажав кнопку "Ввод!".


*Определитесь, кто Вы:
робот инопланетянин человек

Внимание! Время в таблицах - всемирное. Для получения местного времени необходимо прибавить поправку, которая равна 1 ч.

Смотрите также архив погоды в соседних городах и на ближайших метеорологических станциях:

Погода в Килписйарви (Финляндия) (53 км)
Погода на Саане (Финляндия) (55 км)
Погода в Бардуфоссе (Норвегия) (56 км)
Погода в Абиску (Швеция) (60 км)
Погода в Шиботне (Норвегия) (71 км)
Погода в Каттерьяк аэропорту (Швеция) (74 км)
Погода в Каттерьяке (Швеция) (74 км)
Погода в Наймакке (Швеция) (75 км)
Погода в Ренсьоне (Швеция) (79 км)
Погода в Люнгене (Норвегия) (88 км)

Пояснения к столбцам:

Ветер - указаны скорость ветра в м/с - средняя за 10 мин, порывы в срок и между сроками (в фигурных скобках) и направление, откуда дует ветер: С - северный, СВ - северо-восточный, В - восточный, ЮВ - юго-восточный, Ю - южный, ЮЗ - юго-западный, З - западный, СЗ - северо-западный.
Видимость - горизонтальная дальность видимости в метрах или километрах. При видимости от 1 до 10 км при отсутствии осадков обычно наблюдается дымка, при ухудшении видимости до 1 км и менее - туман. В сухую погоду видимость может ухудшаться дымом, пылью или мглою.
Явления - указаны атмосферные явления, наблюдавшиеся в срок или в последний час перед сроком; фигурными скобками обозначены явления, наблюдавшиеся между сроками (за 1-3 часа до срока); квадратными скобками обозначены град или гололедные отложения с указанием их диаметра в мм.
Облачность - указаны через наклонную черту общая и нижняя облачность в баллах и высота нижней границы облаков в метрах; квадратными скобками обозначены формы облаков: Ci - перистые, Cs - перисто-слоистые, Cc - перисто-кучевые, Ac - высококучевые, As - высокослоистые, Sc - слоисто-кучевые, Ns - слоисто-дождевые, Cu - кучевые, Cb - кучево-дождевые. Подробнее классификацию облаков см. в Атласе облаков (PDF).
T - Температура воздуха - температура, измеренная на высоте 2 м над землей.
Td - Температура точки росы - температура, при понижении до которой содержащийся в воздухе водяной пар достигнет насыщения.
f - Относительная влажность воздуха - влажноcть воздуха, измеренная на высоте 2 м над землей.
Te - Эффективная температура - температура, которую ощущает одетый по сезону человек в тени. Характеристика душности погоды. При расчете учитывается влияние влажности воздуха и скорости ветра на теплоощущения человека.
Tes - Эффективная температура на солнце - температура, которую ощущает человек, с поправкой на солнечный нагрев. Характеристика знойности погоды. Зависит от высоты солнца над горизонтом, облачности и скорости ветра. Ночью, в пасмурную погоду, а также при ветре 12 м/с и более поправка равна нулю.
P - Атмосферное давление - приведенное к уровню моря атмосферное давление.
Po - Атмосферное давление - измеренное на уровне метеостанции атмосферное давление.
Tmin - Минимальная температура - минимум температуры воздуха на высоте 2 м над землей.
Tmax - Максимальная температура - максимум температуры воздуха на высоте 2 м над землей.
R - Количество осадков - Количество выпавших осадков за период времени, мм. При наведении курсора мыши на число - период времени, за который выпало указанное количество осадков.
R24 - Количество осадков - Количество выпавших осадков за 24 часа, мм.
S - Снежный покров - Высота снежного покрова, см. При наведении курсора мыши на число - состояние снежного покрова и степень покрытия местности в баллах.